Regional Weather Roundup
Issued by NWS

Home | Current Version | Previous Version | Text Only | Print | Product List | Glossary Off
Versions: 1 2 3 4 5 6 7 8 9 10 11 12 13 14 15 16 17 18 19 20 21 22 23 24 25 26 27 28 29 30 31 32 33 34 35 36 37 38 39 40 41 42 43 44 45 46 47 48 49 50

456
ASUS43 KBIS 280710
RWRND
NORTH DAKOTA REGIONAL WEATHER ROUNDUP
NATIONAL WEATHER SERVICE EASTERN NORTH DAKOTA/GRAND FORKS ND
200 AM CDT WED JUN 28 2017

  NOTE: "FAIR" INDICATES FEW OR NO CLOUDS BELOW 12,000 FEET WITH NO
  SIGNIFICANT WEATHER AND/OR OBSTRUCTIONS TO VISIBILITY.

NDZ001>003-009>011-017-280800-
...NORTHWEST NORTH DAKOTA...

CITY           SKY/WX    TMP DP  RH WIND       PRES   REMARKS
WILLISTON      FAIR      65  57  75 NW9       29.68S
MINOT          CLOUDY    67  58  72 NW15      29.56R
MINOT AFB      CLOUDY    65  58  76 NW16      29.56R
$$

NDZ018>021-031>035-040>046-280800-
...SOUTHWEST NORTH DAKOTA...

CITY           SKY/WX    TMP DP  RH WIND       PRES   REMARKS
BISMARCK       FAIR      65  64  97 NW9       29.52F
DICKINSON      MOCLDY    65  55  70 NW14      29.64F
GARRISON         N/A     65  57  75 N17       29.55F
HETTINGER      FAIR      63  54  72 W15       29.67R
$$

NDZ004>008-012>016-024-026-027-054-280800-
...NORTHEAST NORTH DAKOTA...

CITY           SKY/WX    TMP DP  RH WIND       PRES   REMARKS
GRAND FORKS    RAIN      62  57  83 S8        29.58R
GRAND FORKS AF TSTM      61  57  88 S12       29.59R
DEVILS LAKE    LGT RAIN  63  61  93 E9        29.51F
$$

NDZ022-023-025-028>030-036>039-047>053-280800-
...SOUTHEAST NORTH DAKOTA...

CITY           SKY/WX    TMP DP  RH WIND       PRES   REMARKS
JAMESTOWN      FAIR      63  55  75 NE16      29.47S
FARGO          FAIR      63  61  93 SE14G24   29.51F
WAHPETON       FAIR      64  54  68 E10       29.54S
$$




USA.gov is the U.S. government's official web portal to all federal, state and local government web resources and services.